Weather History for St. Johnsbury, VT

Change the Weather History Date:

Monday, December 3, 2012

  Actual Average Record
Temperature  
Mean Temperature 41 °F 28 °F  
Max Temperature 46 °F 36 °F 54 °F (2009)
Min Temperature 35 °F 21 °F -8 °F (1978)
Degree Days  
Heating Degree Days 24 37  
Month to date heating degree days 102 109  
Since 1 July heating degree days 1781 1765  
Cooling Degree Days 0 0  
Month to date cooling degree days 0  
Year to date cooling degree days 433  
Moisture  
Dew Point 35 °F    
Average Humidity 88    
Maximum Humidity 100    
Minimum Humidity 76    
Precipitation  
Precipitation 0.01 in 0.11 in 1.25 in (1905)
Month to date precipitation 0.35 0.32  
Year to date precipitation 31.08 36.74  
Sea Level Pressure  
Sea Level Pressure 30.17 in    
Wind  
Wind Speed - (North)    
Max Wind Speed -    
Max Gust Speed -    
T = Trace of Precipitation, MM = Missing Value Source: NWS Daily Summary

Daily Weather History Graph

Daily Weather History Graph

Search for Another Location

Airport:

Trip Planner

Search our weather history database for the weather conditions in past years. The results will help you decide how hot, cold, wet, or windy it might be!

Date:

Astronomy

Dec. 03, 2012 Rise Set
Actual Time 7:06 AM EST 4:09 PM EST
Civil Twilight 6:33 AM EST 4:42 PM EST
Nautical Twilight 5:57 AM EST 5:18 PM EST
Astronomical Twilight 5:22 AM EST 5:53 PM EST
Moon 8:59 PM EST (12/3) 10:23 AM EST (12/3)
Length of Visible Light 10h 08m
Length of Day
9h 02m
Waning Gibbous, 78% of the Moon is Illuminated
Dec 3
Waning Gibbous
Dec 6
Last Quarter
Dec 13
New
Dec 20
First Quarter
Dec 28
Full

Hourly Weather History & Observations

Time (EST) Temp. Dew Point Humidity Pressure Visibility Wind Dir Wind Speed Gust Speed Precip Events Conditions
12:54 AM 41.0 °F 39.9 °F 96% 29.94 in - North - - N/A   Unknown
1:54 AM 39.9 °F 39.0 °F 97% 29.95 in - North - - N/A   Unknown
2:54 AM 41.0 °F 39.9 °F 96% 29.96 in - North - - N/A   Unknown
3:54 AM 42.1 °F 41.0 °F 96% 29.98 in - North - - N/A   Unknown
4:54 AM 42.1 °F 39.9 °F 92% 30.01 in - North - - N/A   Unknown
5:54 AM 46.0 °F 41.0 °F 83% 30.04 in - North - - 0.01 in   Unknown
6:54 AM 44.1 °F 37.9 °F 79% 30.08 in - North - - N/A   Unknown
7:54 AM 41.0 °F 36.0 °F 82% 30.13 in - North - - N/A   Unknown
8:54 AM 39.9 °F 35.1 °F 83% 30.17 in - North - - N/A   Unknown
9:54 AM 39.0 °F 35.1 °F 86% 30.20 in - North - - N/A   Unknown
10:54 AM 37.9 °F 34.0 °F 86% 30.21 in - North - - N/A   Unknown
11:54 AM 37.9 °F 33.1 °F 83% 30.22 in - North - - N/A   Unknown
12:54 PM 37.9 °F 34.0 °F 86% 30.23 in - North - - N/A   Unknown
1:54 PM 39.0 °F 33.1 °F 79% 30.22 in - North - - N/A   Unknown
2:54 PM 39.0 °F 33.1 °F 79% 30.25 in - North - - N/A   Unknown
3:54 PM 37.9 °F 33.1 °F 83% 30.26 in - North - - N/A   Unknown
4:54 PM 37.0 °F 33.1 °F 86% 30.26 in - North - - N/A   Unknown
5:54 PM 37.0 °F 33.1 °F 86% 30.25 in - North - - N/A   Unknown
6:54 PM 37.0 °F 33.1 °F 86% 30.26 in - North - - N/A   Unknown
7:54 PM 36.0 °F 33.1 °F 89% 30.27 in - North - - N/A   Unknown
8:54 PM 35.1 °F 33.1 °F 92% 30.28 in - North - - N/A   Unknown
9:54 PM 35.1 °F 33.1 °F 92% 30.28 in - North - - N/A   Unknown
10:54 PM 35.1 °F 32.0 °F 89% 30.29 in - North - - N/A   Unknown
11:54 PM 35.1 °F 32.0 °F 89% 30.29 in - North - - N/A   Unknown